Wind_Speed
6 7 7 8 9 9 9 9 9 9 9 9 9 10 10 10 11 11 12 12 13 12 13 12 12 11 11 11 11 10 10 10 10 9 9 8 8 7 7 6 5 5 5
7 7 8 10 10 10 10 10 10 10 10 10 10 11 11 11 11 12 12 13 13 13 13 13 12 12 12 11 11 11 10 10 10 10 9 9 8 8 7 7 6 6 6
9 9 10 11 11 11 10 10 11 11 11 11 11 11 12 12 12 13 13 13 13 13 13 13 13 12 12 12 12 11 11 11 11 10 10 9 9 9 8 8 7 6 6
10 11 12 12 12 12 12 11 11 12 12 12 13 13 13 13 14 14 14 14 14 14 14 14 13 13 13 13 12 12 12 12 11 10 10 10 10 9 9 8 8 7 6
11 12 13 13 13 13 12 12 12 13 13 13 14 14 14 14 15 15 15 16 15 15 15 15 15 14 14 14 13 13 13 13 12 11 11 11 10 10 9 9 8 7 7
13 14 14 14 14 14 13 13 13 13 13 14 15 15 15 15 16 16 16 17 17 16 16 16 16 16 15 15 15 14 14 14 13 13 12 12 12 11 11 10 9 8 8
14 14 16 16 15 15 14 14 14 14 14 15 15 16 16 16 17 17 18 18 18 17 17 17 17 17 17 16 16 16 16 15 15 15 14 13 13 12 13 12 11 10 10
15 16 16 16 15 14 14 14 15 15 15 16 16 16 17 17 18 18 19 19 19 19 19 19 19 19 18 18 18 17 17 17 17 16 16 15 14 14 14 14 13 12 11
16 16 17 16 16 15 15 16 16 17 17 17 17 17 17 18 18 19 19 19 19 20 20 20 20 20 20 19 19 19 19 18 18 18 17 17 16 15 15 14 14 13 13
17 17 17 17 17 17 17 17 18 18 18 18 18 18 18 19 19 19 20 20 20 20 20 21 21 21 21 20 20 21 21 20 19 19 18 18 17 17 16 16 15 15 15
18 17 18 18 18 18 18 19 20 20 20 20 20 19 20 20 20 20 21 21 21 21 21 22 22 22 22 22 21 21 21 21 21 21 20 20 19 19 19 18 17 17 16
18 18 19 19 19 19 19 20 20 21 21 21 21 21 21 21 22 22 22 22 22 23 23 23 23 23 23 23 23 22 22 22 21 22 22 21 21 21 21 20 20 19 18
19 19 20 20 20 20 20 21 21 22 22 23 23 23 23 23 23 23 23 23 23 24 24 24 24 24 25 25 24 24 23 23 22 22 23 23 22 22 22 22 21 21 20
19 19 20 20 21 21 20 21 21 22 23 23 23 23 23 24 24 24 23 24 24 25 26 26 26 26 27 27 26 26 24 23 23 22 22 23 23 23 23 23 23 21 21
20 20 21 21 21 22 21 21 22 23 23 23 23 24 24 24 24 25 25 25 26 27 27 27 27 27 28 28 27 27 26 25 24 24 24 24 24 24 23 23 22 22 23
19 18 20 21 21 22 22 22 23 24 24 24 24 24 25 25 25 25 27 27 27 28 28 29 29 28 28 28 27 27 27 27 26 26 26 26 26 25 24 24 24 24 25
19 19 21 22 22 22 23 23 24 24 24 24 24 25 25 26 26 26 26 27 28 28 28 28 29 29 29 28 28 28 28 28 28 27 27 27 27 27 26 27 27 26 26
20 20 21 22 23 24 24 24 25 25 25 25 25 26 26 26 27 27 27 27 28 28 28 28 28 29 30 28 27 28 29 29 29 30 30 29 29 29 29 28 28 28 27
21 21 21 22 22 24 24 24 25 25 25 26 25 26 26 27 28 28 29 29 29 29 29 29 28 29 29 29 29 29 30 30 30 30 31 31 31 31 30 30 29 30 29
21 21 21 22 23 23 23 24 25 25 25 26 26 26 27 29 30 30 30 30 30 30 30 30 30 30 30 31 31 31 31 32 32 31 31 32 33 32 32 32 31 31 31
20 20 21 22 24 24 24 25 25 26 26 27 28 28 29 30 30 30 30 30 31 30 31 31 31 31 31 31 32 32 32 33 33 32 32 32 33 33 34 34 33 33 33
21 21 22 23 23 24 25 26 25 26 27 28 29 30 31 31 30 31 31 32 32 32 32 33 33 32 32 32 32 33 33 34 34 33 33 33 33 34 34 35 35 34 34
21 21 23 23 24 25 26 26 27 27 28 29 30 30 31 31 31 31 32 32 32 32 32 32 33 33 33 32 32 33 33 32 33 33 33 33 33 34 34 35 35 35 34
21 22 23 24 25 27 27 26 27 28 29 29 30 30 30 31 32 32 32 32 32 32 32 32 32 32 32 32 32 32 32 32 32 32 33 33 34 35 35 35 35 35 35
23 23 24 25 26 27 27 26 27 29 29 29 29 29 29 30 30 31 31 32 32 31 31 31 31 31 31 32 32 32 32 32 32 33 33 33 34 34 34 35 35 35 35
23 24 24 26 26 27 26 26 27 28 28 29 29 29 29 29 29 29 30 30 30 30 29 29 29 30 30 29 30 31 31 32 32 33 32 32 32 33 33 34 35 35 36
Wind_Direction
327 326 321 318 318 319 321 325 327 329 329 329 329 328 326 326 326 326 325 324 323 322 322 321 320 319 317 316 317 316 314 310 308 306 304 301 299 296 292 286 278 273 264
316 317 316 314 314 314 316 319 320 321 322 322 321 320 319 320 319 320 319 319 319 317 316 315 314 313 312 311 312 311 310 307 306 306 303 298 296 294 288 281 272 263 258
310 309 309 310 310 310 312 313 315 317 318 317 316 314 313 313 312 312 313 313 313 313 311 309 307 307 307 306 305 305 305 303 302 302 300 295 293 290 285 283 269 262 256
305 305 305 307 307 308 310 311 313 314 315 315 313 310 309 309 308 308 308 308 307 307 305 304 301 300 300 300 300 300 298 297 296 296 295 293 291 288 283 280 268 263 255
298 299 301 303 304 306 306 308 309 309 310 309 308 306 305 304 304 304 304 305 304 303 302 301 298 294 294 294 294 294 293 293 292 291 291 291 290 289 284 281 274 267 259
293 293 295 298 300 301 301 302 304 304 305 304 303 303 303 302 302 302 301 301 300 299 298 298 297 293 291 291 291 290 290 289 289 288 286 286 287 286 284 281 276 269 263
289 289 292 294 295 297 299 299 300 301 300 300 300 300 300 300 300 299 299 297 296 295 295 294 294 292 290 289 289 288 287 286 285 286 284 282 283 281 280 280 277 269 267
289 289 290 290 291 293 295 296 297 298 297 297 297 296 296 297 298 297 298 295 293 291 291 290 291 290 289 288 286 285 284 284 282 282 281 279 278 277 277 277 275 268 266
288 287 287 287 288 291 293 293 294 293 293 293 293 293 294 294 295 295 295 294 292 290 288 288 287 287 287 287 286 283 282 281 281 280 278 276 274 274 274 272 272 268 264
282 284 283 284 285 287 289 290 290 290 289 288 289 289 291 291 291 292 292 292 291 288 288 286 285 284 286 286 285 283 281 280 278 278 277 275 273 272 271 270 268 267 264
282 284 284 283 284 284 287 288 288 288 288 287 286 287 287 287 288 290 290 289 288 285 284 284 283 282 282 283 283 283 282 279 277 275 274 273 272 272 271 270 266 265 263
279 282 284 284 284 284 285 287 288 288 287 286 285 285 285 285 286 288 288 287 285 283 281 281 280 280 280 280 280 281 281 278 277 272 271 271 271 271 271 269 266 264 262
280 281 284 283 282 282 284 286 287 287 286 285 284 284 283 283 284 285 285 284 284 282 280 279 279 279 280 279 277 278 278 277 276 272 271 271 270 269 270 269 268 264 260
281 282 283 284 283 283 286 288 288 288 284 283 282 282 281 280 282 283 283 283 283 283 282 280 278 278 278 278 277 275 275 275 273 271 272 270 268 268 270 267 267 262 256
281 279 280 283 284 284 285 286 287 288 287 284 283 283 282 280 280 280 281 281 282 283 282 281 279 278 277 277 277 275 273 272 270 270 269 269 267 269 268 264 265 261 254
279 281 283 284 283 282 283 285 285 287 287 283 282 283 281 280 281 279 280 280 282 282 281 281 280 278 276 276 275 273 272 271 270 270 270 268 266 266 266 264 262 261 256
278 279 279 281 281 281 282 283 285 285 286 284 281 282 282 281 281 282 281 281 282 281 281 283 281 279 277 276 275 274 272 271 270 268 268 267 266 265 264 264 263 262 259
282 281 281 283 281 281 283 283 284 284 283 283 281 282 282 283 284 281 280 282 281 281 281 283 281 277 276 274 273 273 271 271 270 269 267 266 266 265 264 264 263 262 261
284 285 287 288 286 285 285 285 284 285 283 282 282 282 282 282 282 282 279 281 280 280 281 282 279 278 275 273 273 272 271 270 270 269 267 265 263 263 262 261 261 262 261
286 288 289 290 290 288 287 286 285 283 283 284 283 283 283 283 283 283 282 282 282 281 280 280 278 278 276 275 274 272 270 269 269 267 266 265 263 261 261 260 260 260 261
287 287 288 289 289 290 288 286 285 284 284 284 284 283 284 284 284 284 284 283 283 282 281 281 279 278 276 274 274 273 272 271 270 267 266 265 264 262 261 260 260 259 259
290 290 292 293 291 289 289 287 284 284 284 283 284 284 284 284 285 284 284 285 283 283 283 282 280 278 276 274 273 273 272 272 270 268 266 265 263 263 262 261 260 259 256
296 297 295 294 294 292 290 289 286 285 285 285 285 284 284 284 284 284 283 283 283 283 285 284 281 278 277 275 275 274 273 271 269 268 267 266 265 264 263 261 260 258 256
297 299 298 297 297 296 292 289 287 287 288 288 287 287 286 286 285 284 283 285 285 285 285 284 281 278 277 276 276 275 274 273 270 266 267 267 265 264 262 261 259 257 255
297 300 300 301 301 300 296 292 292 290 289 288 288 288 287 288 288 287 286 285 285 285 284 283 281 278 278 277 276 276 275 274 272 269 266 265 264 263 261 260 258 256 254
296 299 301 303 304 302 297 296 293 291 289 289 288 288 288 289 289 288 287 286 286 286 285 282 280 280 280 277 277 276 275 274 272 271 269 267 265 264 262 260 257 255 254
Height
5896 5895 5895 5895 5894 5893 5892 5892 5891 5891 5891 5890 5890 5890 5889 5889 5888 5887 5887 5886 5886 5885 5884 5884 5883 5883 5882 5882 5881 5881 5880 5879 5878 5878 5877 5877 5877 5876 5876 5876 5876 5875 5875
5895 5895 5894 5894 5893 5892 5892 5891 5890 5890 5890 5889 5889 5888 5888 5887 5887 5886 5885 5885 5884 5884 5883 5882 5882 5881 5881 5880 5880 5879 5878 5878 5877 5877 5876 5876 5875 5875 5875 5875 5875 5874 5875
5894 5894 5893 5893 5892 5891 5891 5890 5889 5888 5888 5888 5887 5887 5886 5886 5885 5884 5884 5883 5882 5882 5881 5881 5880 5880 5879 5879 5878 5877 5877 5876 5876 5876 5875 5874 5874 5874 5873 5873 5873 5873 5874
5893 5893 5892 5892 5891 5890 5889 5888 5888 5887 5887 5886 5885 5885 5884 5884 5883 5882 5881 5881 5880 5880 5879 5879 5878 5878 5877 5877 5876 5876 5875 5875 5874 5874 5873 5873 5873 5872 5872 5871 5871 5872 5872
5892 5892 5891 5890 5889 5888 5887 5887 5886 5885 5885 5884 5884 5883 5882 5882 5881 5880 5879 5878 5878 5877 5877 5876 5876 5875 5875 5875 5874 5873 5873 5873 5872 5872 5872 5871 5871 5870 5870 5870 5870 5870 5870
5890 5890 5889 5888 5887 5886 5886 5885 5884 5883 5883 5882 5881 5881 5880 5879 5878 5878 5877 5876 5875 5875 5874 5873 5873 5873 5872 5872 5872 5871 5871 5870 5870 5870 5869 5869 5869 5868 5868 5868 5868 5868 5868
5888 5887 5887 5886 5885 5884 5884 5883 5882 5881 5880 5880 5879 5878 5877 5876 5876 5875 5874 5873 5872 5871 5871 5870 5870 5869 5869 5869 5869 5869 5868 5868 5867 5867 5866 5866 5866 5866 5865 5865 5865 5866 5866
5886 5885 5884 5884 5883 5882 5881 5880 5880 5879 5878 5877 5876 5876 5875 5874 5873 5872 5871 5870 5869 5868 5868 5867 5866 5866 5866 5866 5865 5865 5865 5865 5864 5863 5863 5863 5863 5863 5863 5863 5863 5863 5864
5883 5882 5881 5881 5880 5879 5878 5878 5877 5876 5875 5875 5874 5873 5872 5871 5870 5869 5868 5867 5866 5865 5864 5864 5863 5863 5862 5862 5862 5861 5861 5861 5861 5860 5860 5860 5860 5860 5860 5860 5860 5860 5861
5880 5880 5879 5878 5877 5876 5875 5874 5874 5873 5872 5871 5870 5869 5868 5867 5866 5865 5864 5863 5862 5861 5861 5860 5859 5859 5858 5858 5858 5857 5857 5857 5857 5856 5856 5856 5856 5856 5856 5856 5857 5857 5857
5877 5877 5876 5875 5874 5873 5872 5871 5870 5869 5868 5867 5867 5866 5865 5864 5863 5862 5860 5859 5858 5857 5857 5856 5855 5855 5854 5854 5854 5853 5853 5853 5853 5852 5852 5852 5852 5853 5853 5853 5853 5853 5853
5874 5873 5872 5871 5870 5869 5868 5867 5866 5865 5864 5863 5862 5862 5860 5860 5859 5857 5856 5855 5854 5853 5852 5852 5851 5850 5850 5849 5849 5849 5848 5848 5848 5848 5848 5848 5848 5848 5848 5849 5849 5849 5850
5870 5869 5868 5867 5866 5865 5864 5863 5862 5861 5860 5859 5858 5857 5856 5855 5854 5853 5852 5850 5849 5848 5848 5847 5846 5846 5845 5844 5844 5844 5843 5843 5843 5843 5843 5843 5843 5843 5843 5844 5844 5844 5845
5866 5865 5863 5863 5861 5860 5859 5859 5857 5856 5855 5854 5853 5852 5851 5850 5849 5848 5846 5845 5844 5843 5842 5842 5841 5841 5840 5839 5839 5839 5838 5838 5838 5838 5838 5838 5838 5838 5838 5838 5839 5839 5840
5861 5860 5859 5858 5857 5856 5855 5854 5853 5852 5850 5849 5848 5847 5845 5844 5843 5842 5842 5840 5839 5838 5837 5836 5835 5834 5834 5833 5833 5833 5833 5833 5833 5833 5833 5832 5832 5833 5833 5833 5833 5834 5835
5856 5855 5854 5853 5852 5851 5850 5850 5848 5847 5845 5844 5843 5841 5840 5839 5838 5837 5836 5835 5833 5832 5831 5830 5829 5828 5828 5827 5827 5827 5827 5827 5827 5827 5827 5827 5827 5827 5827 5827 5828 5829 5829
5852 5851 5850 5848 5847 5846 5845 5844 5843 5841 5839 5838 5837 5836 5835 5834 5832 5831 5830 5829 5827 5826 5825 5824 5823 5822 5822 5821 5821 5820 5820 5820 5820 5820 5820 5821 5821 5821 5821 5822 5822 5822 5823
5847 5846 5845 5843 5842 5841 5840 5839 5837 5835 5833 5832 5831 5830 5829 5828 5827 5825 5824 5823 5821 5820 5818 5817 5816 5816 5815 5815 5814 5814 5813 5813 5813 5813 5814 5814 5814 5814 5815 5815 5815 5816 5816
5842 5841 5840 5838 5837 5835 5834 5833 5831 5830 5828 5827 5826 5824 5823 5822 5820 5819 5817 5816 5814 5813 5812 5811 5810 5809 5808 5807 5807 5806 5806 5805 5805 5806 5806 5806 5806 5806 5807 5808 5808 5809 5810
5837 5836 5835 5833 5832 5830 5828 5827 5825 5824 5823 5821 5820 5819 5817 5815 5814 5812 5810 5809 5807 5806 5805 5804 5803 5801 5801 5800 5799 5799 5798 5797 5797 5797 5797 5798 5798 5798 5799 5800 5801 5801 5802
5833 5831 5830 5828 5827 5824 5822 5821 5819 5818 5817 5815 5813 5812 5811 5809 5807 5805 5803 5802 5800 5799 5797 5796 5795 5793 5792 5792 5791 5791 5790 5789 5789 5789 5789 5789 5789 5789 5790 5791 5792 5793 5794
5828 5826 5825 5823 5821 5818 5816 5814 5812 5811 5810 5809 5807 5805 5804 5802 5800 5798 5797 5795 5793 5791 5790 5788 5787 5785 5784 5783 5783 5782 5782 5781 5780 5780 5780 5780 5780 5781 5781 5782 5783 5784 5786
5824 5822 5820 5818 5815 5813 5810 5808 5806 5804 5803 5802 5800 5798 5796 5794 5792 5790 5788 5787 5785 5783 5781 5780 5778 5776 5775 5774 5774 5773 5773 5772 5772 5772 5771 5771 5771 5771 5772 5773 5774 5775 5777
5819 5817 5815 5812 5809 5807 5804 5802 5800 5798 5796 5795 5793 5791 5789 5787 5785 5783 5781 5779 5777 5775 5773 5771 5769 5768 5767 5766 5765 5764 5764 5763 5763 5763 5763 5762 5762 5762 5762 5763 5764 5766 5767
5813 5811 5809 5806 5803 5800 5798 5795 5793 5791 5789 5787 5785 5783 5781 5779 5777 5775 5773 5771 5769 5767 5765 5763 5761 5759 5758 5757 5756 5755 5755 5754 5753 5754 5754 5753 5753 5752 5753 5754 5754 5756 5758
5808 5806 5803 5800 5797 5794 5791 5789 5786 5784 5782 5780 5778 5776 5774 5772 5770 5767 5765 5763 5761 5758 5756 5754 5752 5751 5750 5749 5747 5746 5746 5745 5744 5744 5744 5744 5744 5743 5743 5744 5745 5747 5748